Location: Zilina
(0.0000°N, 18.7333°E)
Time: 20:22:17
(UTC+01:00)

Ariane H10-3 - Pass Details

Date: 19 February 2019
Orbit: 299 x 30470 km, 4.0° (Epoch: 18 March)

Event Time Altitude Azimuth Distance (km) Brightness Sun altitude
Rises 19:21:30 0° 265° (W) 2,065 6.3 -20.2°
Reaches altitude 10° 19:22:46 10° 260° (W) 1,413 5.1 -20.6°
Maximum altitude 19:25:19 61° 178° (S) 701 2.3 -21.2°
Enters shadow 19:26:55 38° 114° (ESE) 1,232 3.1 -21.6°
